Location: Holyhead Bay
(53.3667°N, 4.6667°W)
Time: 05:42:04
(UTC+00:00)

USA 215 - Pass Details

Date: 24 November 2020
Orbit: 1098 x 1110 km, 123.0° (Epoch: 22 January)

Event Time Altitude Azimuth Distance (km) Brightness Sun altitude
Exits shadow 20:22:43 57° 275° (W) 1,291 3.7 -36.8°
Drops below altitude 10° 20:27:51 10° 260° (W) 2,975 6.1 -37.5°
Sets 20:30:20 0° 259° (WSW) 3,933 6.9 -37.9°
